TFL39G LTAI-EHAM

Flight info

Callsign TFL39G
Flight time N/A
Altitude 36000
Route EKSEN1K/18L EKSEN UT337 EKNUD UQ26 TUDBU DCT NAVOD DCT SODGO DCT GUPRO DCT MOPUG DCT ZOLKU DCT BEGLA DCT FMD DCT STO DCT DITIS DCT VARIK DCT KATCE DCT APEBE DCT NORKU
Aircraft B738/M-SDE2E3FGHIRWXY/LB1

Departure

Time 2026-05-06 18:57
Airport Antalya International Airport (LTAI)

Arrival

Time N/A
Airport Amsterdam Airport Schiphol (EHAM)
Time Latitude Longitude Altitude Speed Heading
2026-05-06 18:25 36.89703 30.80102 191 ft 0 kts
2026-05-06 18:45 36.89686 30.80101 202 ft 4 kts
2026-05-06 18:45 36.89659 30.80099 205 ft 4 kts
2026-05-06 18:46 36.89637 30.80097 196 ft 4 kts
2026-05-06 18:46 36.89615 30.80089 195 ft 4 kts 59°
2026-05-06 18:46 36.89612 30.80062 206 ft 4 kts 96°
2026-05-06 18:46 36.89613 30.80049 199 ft 1 kts 96°
2026-05-06 18:51 36.89611 30.80074 206 ft 10 kts 96°
2026-05-06 18:51 36.89600 30.80200 191 ft 15 kts 96°
2026-05-06 18:51 36.89589 30.80325 197 ft 15 kts 96°
2026-05-06 18:51 36.89577 30.80450 199 ft 14 kts 96°
2026-05-06 18:52 36.89567 30.80569 191 ft 14 kts 96°
2026-05-06 18:52 36.89579 30.80677 198 ft 13 kts 49°
2026-05-06 18:52 36.89665 30.80705 191 ft 15 kts
2026-05-06 18:52 36.89805 30.80723 193 ft 24 kts
2026-05-06 18:53 36.89941 30.80742 195 ft 17 kts
2026-05-06 18:53 36.90054 30.80758 202 ft 16 kts
2026-05-06 18:53 36.90162 30.80772 191 ft 15 kts
2026-05-06 18:53 36.90266 30.80785 202 ft 15 kts
2026-05-06 18:54 36.90375 30.80801 191 ft 21 kts
2026-05-06 18:54 36.90525 30.80823 203 ft 22 kts
2026-05-06 18:54 36.90673 30.80841 192 ft 21 kts
2026-05-06 18:54 36.90793 30.80858 198 ft 16 kts
2026-05-06 18:55 36.90903 30.80874 194 ft 16 kts
2026-05-06 18:55 36.91007 30.80889 199 ft 15 kts
2026-05-06 18:55 36.91107 30.80910 190 ft 14 kts 25°
2026-05-06 18:55 36.91134 30.81017 193 ft 14 kts 94°
2026-05-06 18:56 36.91103 30.81121 195 ft 13 kts 150°
2026-05-06 18:56 36.91047 30.81130 194 ft 0 kts 186°
2026-05-06 18:56 36.91013 30.81125 194 ft 26 kts 186°
2026-05-06 18:56 36.90583 30.81066 200 ft 97 kts 186°
2026-05-06 18:57 36.89702 30.80946 203 ft 156 kts 185°
2026-05-06 18:57 36.88505 30.80770 511 ft 181 kts 187°
2026-05-06 18:57 36.87222 30.80687 1195 ft 191 kts 171°
2026-05-06 18:57 36.85947 30.81070 2075 ft 187 kts 165°
2026-05-06 18:58 36.84607 30.81418 2546 ft 210 kts 171°
2026-05-06 18:58 36.83124 30.81692 3012 ft 220 kts 171°
2026-05-06 18:58 36.81597 30.81968 3606 ft 224 kts 171°
2026-05-06 18:58 36.80042 30.82253 4223 ft 228 kts 169°
2026-05-06 18:59 36.78507 30.82927 4614 ft 243 kts 152°
2026-05-06 18:59 36.76963 30.83926 5026 ft 260 kts 152°
2026-05-06 18:59 36.75312 30.85039 5438 ft 277 kts 143°
2026-05-06 18:59 36.74061 30.86848 6144 ft 279 kts 112°
2026-05-06 19:00 36.73576 30.89171 6922 ft 278 kts 94°
2026-05-06 19:00 36.73387 30.91586 7649 ft 283 kts 92°
2026-05-06 19:00 36.73217 30.94046 8371 ft 287 kts 92°
2026-05-06 19:00 36.73040 30.96543 9156 ft 290 kts 93°
2026-05-06 19:01 36.72881 30.99034 10013 ft 289 kts 86°
2026-05-06 19:01 36.73398 31.01455 10424 ft 298 kts 56°
2026-05-06 19:01 36.74904 31.03303 10591 ft 315 kts 27°
2026-05-06 19:01 36.77030 31.04203 10788 ft 334 kts
2026-05-06 19:02 36.79410 31.04356 11006 ft 351 kts 355°
2026-05-06 19:02 36.81863 31.04020 11547 ft 358 kts 351°
2026-05-06 19:02 36.84328 31.03536 12259 ft 359 kts 350°
2026-05-06 19:02 36.86796 31.03024 13015 ft 360 kts 350°
2026-05-06 19:03 36.89248 31.02528 13708 ft 363 kts 350°
2026-05-06 19:03 36.91788 31.02038 14352 ft 366 kts 350°
2026-05-06 19:03 36.94279 31.01577 14954 ft 368 kts 350°
2026-05-06 19:03 36.96816 31.01122 15567 ft 370 kts 350°
2026-05-06 19:04 36.99379 31.00673 16179 ft 373 kts 350°
2026-05-06 19:04 37.01967 31.00225 16785 ft 375 kts 350°
2026-05-06 19:04 37.04555 30.99779 17378 ft 377 kts 350°
2026-05-06 19:04 37.07167 30.99332 17970 ft 380 kts 350°
2026-05-06 19:05 37.09814 30.98879 18510 ft 383 kts 350°
2026-05-06 19:05 37.12455 30.98427 18998 ft 385 kts 350°
2026-05-06 19:05 37.15133 30.97969 19482 ft 388 kts 350°
2026-05-06 19:05 37.17783 30.97515 19953 ft 391 kts 350°
2026-05-06 19:06 37.20487 30.97051 20448 ft 393 kts 349°
2026-05-06 19:06 37.23209 30.96584 20873 ft 396 kts 349°
2026-05-06 19:06 37.25957 30.96112 21346 ft 399 kts 349°